{"data":{"norad_id":67611,"intl_designator":"2026-018Y","name":"STARLINK-36636","alt_names":[],"object_type":"PAYLOAD","status":"ACTIVE","operator":null,"country":"US","launch_date":"2026-01-29","launch_site_code":"AFWTR","launch_vehicle":null,"mission":null,"orbit_class":"UNKNOWN","rcs_meters":null,"size_class":null,"mass_kg":null,"dimensions":null,"purposes":["comms"],"wikipedia_slug":null,"has_3d_model":false,"image_url":null,"decayed_at":null,"tle_current":{"epoch":"2026-09-19T10:45:11.312640Z","epoch_age_seconds":159871,"freshness":"FRESH","line1":"1 67611U 26018Y   26262.44804760  .00011778  00000+0  36646-3 0  9990","line2":"2 67611  97.2854 325.8371 0000728  94.2876 265.8450 15.33454895 37029","mean_motion":15.33454895,"eccentricity":7.28e-5,"inclination_deg":97.2854,"raan_deg":325.8371,"arg_perigee_deg":94.2876,"mean_anomaly_deg":265.845,"bstar":0.00036646,"rev_number":3702,"period_min":93.905598703638,"perigee_km":465.01551630472,"apogee_km":466.01195185161,"semimajor_km":6843.6507340782,"source":"CELESTRAK","updated_at":"2026-09-20T09:00:43.608287Z"}}}